Regional Weather Roundup
Issued by NWS Newport/Morehead, NC

Current Version | Previous Version | Text Only | Print | Product List | Glossary On
Versions: 1 2 3 4 5 6 7 8 9 10 11 12 13 14 15 16 17 18 19 20 21 22 23 24 25 26 27 28 29 30 31 32 33 34 35 36 37 38 39 40 41 42 43 44 45 46 47 48 49 50
769
ASUS42 KMHX 061124
RWRMHX
WEATHER ROUNDUP FOR EASTERN NORTH CAROLINA
NATIONAL WEATHER SERVICE NEWPORT/MOREHEAD CITY NC
600 AM EST TUE DEC 06 2016

NOTE: "FAIR" INDICATES FEW OR NO CLOUDS BELOW 12,000 FEET
WITH NO SIGNIFICANT WEATHER AND/OR OBSTRUCTIONS TO VISIBILITY

NCZ015>017-031-032-045>047-102-103-061200-
NORTH COAST

CITY           SKY/WX    TMP DP  RH WIND       PRES   REMARKS
EDENTON        NOT AVBL
ELIZABETH CITY LGT RAIN  50  47  89 NE13      30.01F
KITTY HAWK     NOT AVBL
MANTEO         NOT AVBL

$$

NCZ045>047-081-094-103-104-061200-
CENTRAL COAST

CITY           SKY/WX    TMP DP  RH WIND       PRES   REMARKS
FRISCO         LGT RAIN  53  51  93 NE7       29.98F FOG

$$

NCZ095-097-098-100-101-061200-
SOUTHERN COAST

CITY           SKY/WX    TMP DP  RH WIND       PRES   REMARKS
BEAUFORT       LGT RAIN  52  51  97 E7        29.95F FOG
CEDAR ISLAND   NOT AVBL
JACKSONVILLE   CLOUDY    50  49  96 E14       29.93F
PINEY ISLAND   LGT RAIN N/A N/A N/A NE14      29.97F
WILMINGTON     LGT RAIN  52  52 100 NE13G20   29.90F


$$

NCZ011>013-027>030-043-044-078>080-089-090>093-098-061200-
COASTAL PLAIN

CITY           SKY/WX    TMP DP  RH WIND       PRES   REMARKS
AHOSKIE        NOT AVBL
CLINTON        NOT AVBL
ELIZABETHTOWN  NOT AVBL
GOLDSBORO      LGT RAIN  48  48 100 E13       29.93F
GREENVILLE     NOT AVBL
HAVELOCK       LGT RAIN  51  48  89 E14G23    29.96F
KENANSVILLE    NOT AVBL
KINSTON        NOT AVBL
NEW BERN       CLOUDY    49  47  93 E13       29.96F
RICHLANDS      LGT RAIN  48  47  96 NE12      29.94F
ROCKY MOUNT    CLOUDY    47  46  97 NE7       29.97F
WASHINGTON     NOT AVBL
WHITEVILLE     NOT AVBL

$$

AMZ130-135-150-152-154-156-158-170-250-252-270-ANZ085-086-088-633-658-670-061200-
MARINE OBSERVATIONS

STATION/POSITION TIME  TEMP    WIND        PRES    WAVE   SWELL
                       AIR SEA DIR/SP/G            HT/PER HT/PER
                 (UTC) (F)     (DEG/KT/KT) (MB)    (FT/S) (FT/S)
CHESAPEAKE LIGHT NOT AVBL
64 E VA BEACH    1050   55 60   60/ 17/ 21 1016.7    5/ 8   3/ 8
DUCK             1100   53 54   60/ 22/ 23 1015.7
2 E DUCK         NOT AVBL
OREGON INLET     1100   54 56   40/ 16/ 20 1015.3
13E OREGON INLT  NOT AVBL
HATTERAS CG      1100   53 61   50/ 12/ 15 1014.8
DIAMOND BUOY     1050   61 76   50/ 19/ 23 1015.1    6/ 9   2/ 9
CAPE LOOKOUT     1100   56      50/ 19/ 22 1013.7
BEAUFORT LAB     1100   51 55   50/ 11/ 14 1013.1
30 SE NEW RVR IN 1108   57 70   70/ 23/ 31 1012.1
30 SE NEW RVR IN NOT AVBL
27 SE WRIGHTSVLE 1108   62 67   80/ 21/ 29 1011.4
5 SE WRIGHTSVLE  1108   54 62   90/ 17/ 31 1010.9
225 S CAPE HAT   1050   74 74  200/ 16/ 19 1014.5    6/ 6   2/10
41 SE CHARLESTON 1050   71 74  140/ 10/ 12 1009.8    7/ 6   7/ 6

$$




USA.gov is the U.S. government's official web portal to all federal, state and local government web resources and services.